EDT,Max TemperatureF,Mean TemperatureF,Min TemperatureF,Max Dew PointF,MeanDew PointF,Min DewpointF,Max Humidity, Mean Humidity, Min Humidity, Max Sea Level PressureIn, Mean Sea Level PressureIn, Min Sea Level PressureIn, Max VisibilityMiles, Mean VisibilityMiles, Min VisibilityMiles, Max Wind SpeedMPH, Mean Wind SpeedMPH, Max Gust SpeedMPH,PrecipitationIn, CloudCover, Events, WindDirDegrees
2013-7-1,75,64,53,56,49,39,92,56,34,30.21,30.16,30.09,10,10,4,15,6,18,0.00,0,,65
2013-7-2,71,60,49,55,48,41,89,60,34,30.21,30.17,30.13,10,10,1,10,5,,0.00,1,,62
2013-7-3,73,66,58,58,53,44,84,63,36,30.16,30.12,30.06,10,10,3,12,2,,0.00,5,,30
2013-7-4,78,69,60,64,61,58,100,80,55,30.12,30.08,30.05,10,8,0,14,6,17,0.00,4,Fog,216
2013-7-5,84,73,62,65,61,58,94,67,45,30.10,30.07,30.03,10,10,1,14,6,18,0.00,0,,212
2013-7-6,84,76,67,63,60,55,78,59,42,30.07,30.05,30.00,10,10,2,17,8,23,0.00,0,,220
2013-7-7,84,73,62,69,64,59,98,80,48,30.02,29.98,29.95,10,8,2,15,5,16,0.00,2,Rain,216
2013-7-8,74,70,67,71,69,67,100,96,87,30.03,29.98,29.95,10,7,1,14,4,17,0.00,6,Rain,111
2013-7-9,78,72,66,70,68,67,100,92,70,30.02,29.95,29.76,10,7,2,8,4,,0.00,6,Rain,70
2013-7-10,71,66,60,72,63,57,100,84,63,29.99,29.85,29.72,10,10,4,20,12,28,0.00,3,Rain,269
2013-7-11,70,62,54,59,56,50,100,79,49,30.15,30.09,29.99,10,10,2,10,4,,0.00,1,,333
2013-7-12,76,64,53,62,57,53,99,77,45,30.22,30.17,30.13,10,10,2,9,3,,0.00,0,,60
2013-7-13,81,70,60,62,59,57,91,68,44,30.24,30.21,30.14,10,10,7,15,6,21,0.00,0,,195
2013-7-14,84,73,62,66,63,59,89,72,48,30.30,30.27,30.24,10,10,7,13,4,,0.00,0,,198
2013-7-15,86,76,66,68,65,63,94,71,48,30.34,30.31,30.27,10,10,10,8,3,,0.00,1,,309
2013-7-16,90,78,67,73,69,65,96,73,48,30.31,30.28,30.22,10,10,7,13,4,,0.00,1,,229
2013-7-17,90,81,71,73,71,68,88,72,49,30.26,30.22,30.16,10,10,10,15,8,21,0.00,1,,246
2013-7-18,87,80,72,76,72,70,99,81,58,30.16,30.02,29.82,10,10,4,28,6,46,0.00,2,Rain,223
2013-7-19,84,75,64,73,69,62,95,75,66,29.82,29.73,29.68,10,10,7,24,13,37,0.00,4,Rain,246
2013-7-20,69,64,59,64,54,46,97,68,47,30.05,29.91,29.78,10,10,10,14,7,21,0.00,1,,330
2013-7-21,70,60,50,60,54,50,98,75,49,30.08,30.04,29.97,10,10,10,10,5,,0.00,3,,48
2013-7-22,81,70,59,69,63,58,98,75,56,29.97,29.83,29.69,10,10,10,14,7,18,0.00,2,,194
2013-7-23,76,68,59,67,54,46,94,71,57,29.98,29.82,29.67,10,10,4,22,12,28,0.00,5,Rain,320
2013-7-24,68,57,46,53,49,43,97,68,50,30.11,30.06,29.98,10,10,10,13,6,23,0.00,0,,319
2013-7-25,76,63,50,62,55,49,99,74,48,30.10,30.07,30.02,10,10,10,16,4,18,0.00,2,Rain,208
2013-7-26,79,68,57,66,60,53,100,86,57,30.05,29.95,29.87,10,9,2,18,6,29,0.00,6,Rain,168
2013-7-27,61,58,55,62,55,50,100,89,72,29.89,29.86,29.82,10,10,5,12,6,17,0.00,8,Rain,320
2013-7-28,63,58,54,57,53,50,100,86,65,29.92,29.83,29.77,10,9,2,16,8,24,0.00,8,Rain,260
2013-7-29,67,60,54,59,57,55,100,88,69,30.20,30.08,29.92,10,10,7,16,6,22,0.00,5,Rain,283
2013-7-30,71,62,52,61,57,52,100,84,58,30.25,30.20,30.14,10,10,1,9,3,,0.00,2,Rain,183
2013-7-31,75,68,59,66,61,56,100,84,62,30.14,30.03,29.93,10,10,3,15,5,26,0.00,5,Rain,209